Date String (YYYY-MM-DD hh:mm:ss) UTC,Instrument flags,Ambient pressure (hPa),Sample flow (lpm),Bypass flow (lpm),Sample temperature (°C),Ambient temperature (°C),ASC tube jacket temperature (°C),LED temperature (°C),Box temperature (°C),Sample RH (%),Span deviation,Mass concentration (μg/m³),Mass concentration (μg/m³),Mass concentration (μg/m³)
DateTimeUTC,F1_M11,P_M11,Q1_M11,Q2_M11,T1_M11,T2_M11,T3_M11,T4_M11,T5_M11,U1_M11,ZSPAN_M11,X2_M11,X0_M11,X1_M11
2021-11-15 01:00:00,,0825.5,5.01,0.00,27.7,26.7,00.0,36.7,29.5,13.7,0000.0,0000.84,0004.60,0000.33
2021-11-15 01:01:00,,0825.5,4.99,0.00,27.7,26.7,00.0,36.7,29.5,13.7,0000.0,0000.87,0004.72,0000.33
2021-11-15 01:02:00,,0825.5,5.00,0.00,27.7,26.7,00.0,36.7,29.5,13.7,0000.0,0000.87,0004.69,0000.33
2021-11-15 01:03:00,,0825.5,5.00,0.00,27.7,26.7,00.0,36.7,29.4,13.7,0000.0,0000.83,0005.63,0000.33
2021-11-15 01:04:00,,0825.4,4.99,0.00,27.7,26.8,00.0,36.7,29.4,13.7,0000.0,0000.77,0005.79,0000.32
2021-11-15 01:05:00,,0825.5,5.00,0.00,27.7,26.7,00.0,36.7,29.5,13.7,0000.0,0000.74,0005.45,0000.32
2021-11-15 01:06:00,,0825.6,5.02,0.00,27.7,26.7,00.0,36.7,29.5,13.8,0000.0,0000.72,0005.24,0000.32
2021-11-15 01:07:00,,0825.6,5.01,0.00,27.7,26.8,00.0,36.7,29.4,13.8,0000.0,0000.72,0005.28,0000.32
2021-11-15 01:08:00,,0825.6,5.02,0.00,27.7,26.8,00.0,36.7,29.4,13.8,0000.0,0000.77,0005.36,0000.31
2021-11-15 01:09:00,,0825.7,4.99,0.00,27.7,26.8,00.0,36.7,29.4,13.8,0000.0,0000.79,0004.21,0000.30
2021-11-15 01:10:00,,0825.8,5.00,0.00,27.7,26.8,00.0,36.7,29.4,13.8,0000.0,0000.77,0004.09,0000.30
2021-11-15 01:11:00,,0825.8,5.00,0.00,27.7,26.8,00.0,36.7,29.4,13.8,0000.0,0000.78,0004.08,0000.30
2021-11-15 01:12:00,,0825.6,5.01,0.00,27.7,26.8,00.0,36.7,29.4,13.8,0000.0,0000.78,0004.13,0000.29
2021-11-15 01:13:00,,0825.7,4.99,0.00,27.7,26.8,00.0,36.7,29.4,13.8,0000.0,0000.77,0003.96,0000.29
2021-11-15 01:14:00,,0825.7,5.00,0.00,27.7,26.8,00.0,36.7,29.4,13.8,0000.0,0000.72,0002.31,0000.28
2021-11-15 01:15:00,,0825.7,4.99,0.00,27.7,26.8,00.0,36.7,29.4,13.8,0000.0,0000.73,0001.92,0000.28
2021-11-15 01:16:00,,0825.8,5.01,0.00,27.7,26.8,00.0,36.7,29.4,13.9,0000.0,0000.73,0001.90,0000.29
2021-11-15 01:17:00,,0825.9,5.00,0.00,27.7,26.8,00.0,36.7,29.4,13.9,0000.0,0000.70,0001.82,0000.28
2021-11-15 01:18:00,,0825.9,5.00,0.00,27.7,26.8,00.0,36.7,29.4,13.9,0000.0,0000.68,0001.73,0000.28
2021-11-15 01:19:00,,0825.9,5.00,0.00,27.7,26.9,00.0,36.7,29.4,13.9,0000.0,0000.63,0001.62,0000.29
2021-11-15 01:20:00,,0826.0,5.00,0.00,27.7,26.9,00.0,36.7,29.4,14.0,0000.0,0000.60,0001.42,0000.29
2021-11-15 01:21:00,,0825.9,5.01,0.00,27.7,26.9,00.0,36.7,29.4,14.0,0000.0,0000.59,0001.34,0000.29
2021-11-15 01:22:00,,0825.9,5.01,0.00,27.7,26.9,00.0,36.7,29.4,14.1,0000.0,0000.59,0001.34,0000.29
2021-11-15 01:23:00,,0825.6,4.99,0.00,27.7,26.9,00.0,36.7,29.4,14.1,0000.0,0000.62,0001.38,0000.29
2021-11-15 01:24:00,,0825.7,5.00,0.00,27.7,26.9,00.0,36.7,29.5,14.2,0000.0,0000.65,0001.47,0000.30
2021-11-15 01:25:00,,0825.6,5.00,0.00,27.7,26.8,00.0,36.7,29.5,14.2,0000.0,0000.65,0001.52,0000.29
2021-11-15 01:26:00,,0825.7,5.00,0.00,27.7,26.8,00.0,36.7,29.4,14.3,0000.0,0000.62,0001.52,0000.28
2021-11-15 01:27:00,,0825.7,5.01,0.00,27.7,26.8,00.0,36.7,29.5,14.4,0000.0,0000.61,0001.53,0000.27
2021-11-15 01:28:00,,0825.7,5.00,0.00,27.7,26.8,00.0,36.7,29.5,14.4,0000.0,0000.64,0001.58,0000.28
2021-11-15 01:29:00,,0825.6,5.00,0.00,27.7,26.8,00.0,36.7,29.5,14.4,0000.0,0000.60,0001.50,0000.28
2021-11-15 01:30:00,,0825.4,5.01,0.00,27.7,26.8,00.0,36.7,29.5,14.4,0000.0,0000.58,0001.48,0000.28
2021-11-15 01:31:00,,0825.6,5.00,0.00,27.7,26.7,00.0,36.7,29.5,14.4,0000.0,0000.56,0001.62,0000.27
2021-11-15 01:32:00,,0825.3,5.00,0.00,27.7,26.7,00.0,36.7,29.5,14.4,0000.0,0000.59,0001.78,0000.27
2021-11-15 01:33:00,,0825.4,4.99,0.00,27.7,26.7,00.0,36.7,29.5,14.4,0000.0,0000.76,0002.43,0000.29
2021-11-15 01:34:00,,0825.5,5.00,0.00,27.7,26.7,00.0,36.7,29.5,14.5,0000.0,0000.77,0002.41,0000.29
2021-11-15 01:35:00,,0825.4,4.99,0.00,27.7,26.7,00.0,36.7,29.5,14.5,0000.0,0000.79,0002.43,0000.30
2021-11-15 01:36:00,,0825.5,5.01,0.00,27.7,26.7,00.0,36.7,29.5,14.5,0000.0,0000.86,0004.35,0000.32
2021-11-15 01:37:00,,0825.5,5.00,0.00,27.7,26.7,00.0,36.7,29.5,14.5,0000.0,0000.94,0005.06,0000.33
2021-11-15 01:38:00,,0825.5,5.00,0.00,27.7,26.6,00.0,36.7,29.4,14.5,0000.0,0000.94,0005.13,0000.34
2021-11-15 01:39:00,,0825.6,4.99,0.00,27.7,26.6,00.0,36.7,29.4,14.5,0000.0,0000.96,0005.19,0000.34
2021-11-15 01:40:00,,0825.5,5.00,0.00,27.7,26.6,00.0,36.7,29.4,14.5,0000.0,0001.00,0005.35,0000.34
2021-11-15 01:41:00,,0825.5,5.00,0.00,27.6,26.7,00.0,36.7,29.4,14.6,0000.0,0001.04,0005.41,0000.35
2021-11-15 01:42:00,,0825.4,5.01,0.00,27.6,26.7,00.0,36.7,29.4,14.6,0000.0,0001.10,0005.35,0000.35
2021-11-15 01:43:00,,0825.4,5.00,0.00,27.6,26.6,00.0,36.7,29.4,14.7,0000.0,0001.07,0005.76,0000.35
2021-11-15 01:44:00,,0825.4,5.01,0.00,27.6,26.6,00.0,36.7,29.4,14.7,0000.0,0000.91,0005.65,0000.34
2021-11-15 01:45:00,,0825.5,5.01,0.00,27.6,26.6,00.0,36.7,29.4,14.7,0000.0,0000.88,0005.62,0000.34
2021-11-15 01:46:00,,0825.5,4.98,0.00,27.6,26.6,00.0,36.6,29.4,14.7,0000.0,0000.86,0006.14,0000.33
2021-11-15 01:47:00,,0825.5,5.00,0.00,27.6,26.6,00.0,36.6,29.4,14.7,0000.0,0000.88,0004.67,0000.33
2021-11-15 01:48:00,,0825.5,5.01,0.00,27.6,26.6,00.0,36.6,29.4,14.7,0000.0,0000.80,0004.21,0000.32
2021-11-15 01:49:00,,0825.6,4.99,0.00,27.6,26.6,00.0,36.6,29.4,14.8,0000.0,0000.84,0005.50,0000.33
2021-11-15 01:50:00,,0825.5,5.00,0.00,27.6,26.6,00.0,36.6,29.4,14.8,0000.0,0000.85,0006.27,0000.34
2021-11-15 01:51:00,,0825.5,5.02,0.00,27.6,26.6,00.0,36.6,29.4,14.9,0000.0,0000.84,0006.25,0000.35
2021-11-15 01:52:00,,0825.4,4.99,0.00,27.6,26.6,00.0,36.6,29.4,14.9,0000.0,0000.85,0006.30,0000.35
2021-11-15 01:53:00,,0825.5,5.01,0.00,27.6,26.6,00.0,36.6,29.4,14.9,0000.0,0000.84,0006.58,0000.35
2021-11-15 01:54:00,,0825.5,5.01,0.00,27.6,26.6,00.0,36.6,29.4,15.0,0000.0,0000.85,0006.44,0000.35
2021-11-15 01:55:00,,0825.5,5.00,0.00,27.6,26.6,00.0,36.6,29.4,15.0,0000.0,0000.87,0006.64,0000.36
2021-11-15 01:56:00,,0825.5,5.00,0.00,27.6,26.5,00.0,36.6,29.4,15.0,0000.0,0000.85,0006.58,0000.36
2021-11-15 01:57:00,,0825.5,4.99,0.00,27.6,26.5,00.0,36.6,29.4,15.0,0000.0,0000.81,0005.89,0000.36
2021-11-15 01:58:00,,0825.5,5.01,0.00,27.6,26.5,00.0,36.6,29.3,15.0,0000.0,0000.75,0005.41,0000.35
2021-11-15 01:59:00,,0825.4,4.98,0.00,27.6,26.5,00.0,36.6,29.4,15.1,0000.0,0000.76,0005.11,0000.34
